Location: Chimay
(50.0486°N, 4.3171°E)
Time: 16:14:56
(UTC+00:00)

Meteor 2-6 Rocket - Pass Details

Date: 08 August 2020
Orbit: 806 x 915 km, 81.3° (Epoch: 19 September)

Event Time Altitude Azimuth Distance (km) Brightness Sun altitude
Rises 19:58:38 0° 346° (NNW) 3,356 8.2 -7.1°
Reaches altitude 10° 20:01:01 10° 344° (NNW) 2,430 7.4 -7.4°
Maximum altitude 20:06:29 73° 261° (W) 877 4.5 -8.1°
Drops below altitude 10° 20:12:04 10° 178° (S) 2,477 6.3 -8.8°
Sets 20:14:31 0° 177° (S) 3,426 7.0 -9.1°
